Theta_e
313 316 311 317 313 312 316 317 319 323 324 338 345 345 345 345 347 349 341 344 343 349 349 348 346 339 336 320 319 333 334 336 337 337 337 336 328 327 327 326 324 324 322 322 322 323 324 326 330
313 315 313 316 308 311 308 314 320 320 322 320 330 339 342 342 343 342 339 339 341 345 349 345 345 338 336 322 318 324 333 333 332 333 335 330 327 328 326 324 323 322 322 322 323 324 327 329 329
312 315 316 311 306 307 308 312 316 316 317 317 328 343 344 342 342 341 338 338 341 352 350 346 344 338 336 324 319 320 321 321 323 330 330 326 327 327 326 325 323 322 322 323 325 327 328 327 323
314 318 316 310 310 309 310 313 312 313 316 317 318 316 320 325 350 344 339 337 347 352 347 345 342 338 337 330 320 320 320 320 322 325 325 327 328 327 325 325 322 323 325 327 327 325 322 321 330
317 316 310 313 314 311 310 313 314 313 314 316 316 316 320 325 327 345 339 338 341 350 349 344 342 338 338 333 322 320 320 321 322 325 326 327 326 324 326 323 322 325 327 327 323 321 322 328 338
317 315 312 312 312 313 312 314 315 314 314 319 318 318 321 336 336 344 340 338 336 343 350 345 344 340 339 334 328 320 320 321 322 324 325 324 323 324 326 322 324 327 326 322 321 325 331 341 341
314 312 314 314 317 318 316 317 315 316 316 318 318 317 323 333 349 345 341 339 338 340 350 348 345 342 340 335 332 326 321 321 321 322 322 322 323 325 322 323 326 326 321 321 330 341 341 340 340
315 309 314 315 316 317 316 316 317 317 317 318 318 318 317 320 337 345 347 342 338 338 349 350 345 343 341 333 331 330 326 323 322 322 322 322 322 322 323 325 326 321 322 331 341 343 343 343 343
313 307 310 313 314 315 315 313 315 316 316 317 318 317 318 342 347 339 348 343 341 348 351 351 346 344 342 338 331 332 331 328 323 323 323 322 322 322 325 326 321 321 336 340 342 343 344 344 342
308 305 308 309 312 312 312 312 313 314 315 315 316 318 320 347 350 347 348 345 343 351 352 350 347 345 343 340 333 333 332 331 325 323 323 322 323 325 325 322 322 325 338 341 342 343 344 342 343
307 308 308 310 311 312 311 311 313 314 312 315 316 316 318 329 351 351 352 350 343 351 351 350 347 345 344 342 336 333 334 333 326 323 323 324 325 323 322 324 331 336 341 341 341 343 342 343 343
312 311 310 312 314 313 310 313 311 313 313 314 314 316 317 320 338 350 350 352 352 351 350 349 346 344 343 342 339 334 334 334 327 323 323 323 322 322 327 335 336 340 342 340 341 339 339 341 342
311 311 313 314 313 314 313 310 311 311 313 314 314 315 317 318 320 330 346 352 352 351 350 348 346 344 342 341 340 334 334 333 327 323 323 322 324 331 337 338 338 336 338 339 339 340 337 340 338
313 312 312 313 313 312 310 310 312 313 314 314 315 316 318 319 319 320 322 335 349 350 350 347 345 342 338 338 340 335 334 333 325 322 324 324 328 333 337 338 339 336 335 335 336 335 338 340 333
312 311 309 310 313 313 314 312 309 314 316 317 317 315 315 315 317 317 321 326 341 349 348 346 343 340 335 335 339 337 334 332 324 322 323 332 333 335 337 337 336 336 335 335 336 342 344 334 335
310 309 310 310 313 314 314 312 312 314 315 316 316 317 316 315 316 318 322 329 331 344 347 345 342 343 336 334 339 337 334 329 322 322 327 335 337 337 337 337 337 336 335 337 341 344 340 334 336
308 311 312 312 313 313 314 312 313 314 315 315 315 316 316 315 315 316 322 331 342 344 346 346 344 340 336 335 338 336 333 326 322 325 335 338 338 336 339 339 338 336 337 341 346 344 342 340 336
313 312 311 312 311 312 310 312 311 313 314 313 314 315 316 316 315 315 323 336 339 342 343 345 344 337 337 337 337 335 330 325 322 324 337 336 336 337 339 339 337 336 342 346 345 344 343 338 334
312 312 312 312 312 313 312 312 312 312 313 311 313 314 316 316 317 314 320 331 332 342 341 342 342 337 336 335 335 332 328 323 323 327 336 339 340 342 341 339 335 337 345 345 345 342 338 334 331
312 312 312 312 312 311 312 312 312 312 310 312 313 314 316 316 316 315 316 332 339 340 337 338 341 337 333 333 330 327 324 322 334 339 342 339 342 343 340 338 339 343 344 345 339 333 334 332 330
314 314 313 314 313 311 311 312 311 311 311 312 312 313 315 316 316 316 318 333 336 337 334 336 340 338 333 330 328 327 322 330 340 341 342 341 342 341 340 339 341 344 345 340 332 332 333 330 328
317 314 314 314 314 312 311 313 311 309 309 310 310 312 314 317 315 315 317 335 325 333 336 340 341 337 333 333 328 322 331 339 341 341 342 342 342 342 343 345 346 345 340 332 327 332 329 323 322
316 313 313 315 314 310 312 312 312 308 310 308 309 310 313 315 316 316 316 327 321 327 333 335 341 338 334 337 325 329 339 341 343 343 343 343 342 344 345 347 345 341 333 325 322 323 320 316 311
315 316 313 307 307 312 310 310 311 308 310 313 313 314 313 312 314 316 316 322 323 328 340 337 341 339 337 337 332 338 340 342 344 343 343 343 343 345 346 345 340 333 327 321 318 316 312 310 312
313 313 317 314 309 315 309 311 310 311 313 315 316 315 315 315 313 315 320 325 328 335 341 341 341 340 338 338 337 340 343 343 343 342 344 343 344 344 343 340 334 329 322 317 314 310 309 312 313
314 314 318 318 313 311 312 314 311 311 314 315 316 315 315 315 318 316 320 327 329 336 341 339 338 341 339 338 339 341 344 345 344 343 342 343 342 343 341 335 330 323 317 312 309 309 312 313 310
314 314 313 315 315 317 314 312 311 312 315 316 315 314 314 314 314 322 318 330 330 334 332 337 339 342 341 341 340 343 344 342 342 342 342 343 342 340 336 332 324 318 310 308 309 311 313 311 309
314 313 315 313 317 314 313 314 313 315 316 316 315 313 314 314 314 314 325 335 328 336 336 339 343 344 343 342 342 341 336 341 341 343 343 343 341 337 335 328 321 313 308 310 312 313 313 309 310
314 315 314 311 311 314 315 313 312 315 315 315 314 314 314 314 314 314 320 333 330 335 337 341 341 336 340 343 337 335 335 338 344 344 343 342 341 337 331 326 317 308 309 311 313 314 311 309 311
313 315 313 317 315 312 314 314 312 312 314 316 313 314 315 314 313 315 320 332 334 336 337 341 331 327 331 342 336 334 338 343 344 343 342 342 339 334 330 319 309 309 312 313 312 310 309 311 311
Wind_Speed
3 4 5 7 3 5 2 6 2 2 2 1 10 6 14 8 7 5 9 14 24 32 37 36 32 27 23 22 25 27 25 22 21 19 19 17 15 13 12 10 9 9 8 7 7 7 6 5 4
3 7 8 4 4 1 5 5 4 4 4 11 6 7 4 7 21 15 18 14 14 29 38 36 33 29 25 23 25 27 27 25 23 22 20 19 17 14 12 10 9 8 7 7 6 6 5 4 2
5 10 5 4 4 5 4 4 2 7 15 9 3 5 5 5 15 25 14 12 18 32 37 36 32 31 27 24 25 26 26 25 24 24 23 20 17 14 12 10 9 8 7 7 6 5 4 3 4
6 5 4 4 5 5 4 2 3 8 7 12 10 7 12 18 7 15 15 18 27 32 38 36 33 33 29 26 26 26 26 25 25 25 23 21 18 15 12 10 10 9 8 7 5 4 4 5 5
7 3 4 3 3 5 4 5 5 4 5 10 15 5 13 19 23 15 17 27 33 32 35 36 34 33 31 27 26 26 26 26 26 26 24 21 18 15 13 11 10 9 7 6 4 5 6 6 6
4 3 3 2 3 4 6 7 5 2 5 16 11 19 12 13 17 15 22 28 28 23 36 35 35 34 31 28 26 26 26 26 27 26 24 21 18 15 13 11 11 9 6 5 6 7 7 8 6
6 4 4 4 2 4 4 3 3 4 8 7 20 5 13 21 16 18 20 29 33 24 36 36 35 34 31 29 28 26 25 26 25 24 23 20 17 15 13 13 11 8 6 6 7 9 8 5 4
3 4 3 3 4 5 3 12 8 6 5 15 8 5 11 39 39 25 23 27 29 29 38 38 37 35 33 31 29 27 26 26 24 23 22 19 17 16 14 12 10 8 8 8 9 7 6 4 4
3 4 2 3 4 4 10 6 4 8 18 13 21 20 29 37 26 26 24 27 26 28 37 42 40 37 35 32 30 28 26 24 23 22 20 19 18 17 15 11 9 10 9 9 6 4 4 2 4
4 3 6 5 3 6 8 9 24 7 12 17 27 21 23 16 16 24 29 31 31 34 40 43 42 41 38 35 32 30 28 25 23 22 20 18 17 16 14 11 10 10 9 8 5 5 4 1 2
2 4 4 5 10 11 6 9 11 4 6 16 16 22 20 14 10 18 18 22 35 38 43 46 44 43 40 39 36 33 30 25 22 21 19 19 18 15 13 12 11 10 9 6 4 4 3 1 4
2 6 3 8 13 14 5 10 8 12 15 20 24 19 17 14 16 13 20 17 23 38 45 46 45 44 43 41 38 35 31 26 23 21 20 19 18 15 14 12 11 9 8 5 3 2 3 7 9
4 2 11 18 17 21 19 12 13 10 16 17 16 18 14 13 12 21 22 19 20 34 42 46 46 46 43 40 38 35 32 27 23 22 21 20 18 17 14 11 10 7 7 5 3 3 6 6 7
4 10 14 15 18 8 5 8 5 12 9 10 12 11 12 12 13 14 17 28 24 31 40 42 46 46 43 43 40 36 31 27 24 23 21 20 19 17 14 10 10 7 5 5 4 5 5 4 8
7 5 7 4 4 4 14 12 5 6 13 14 15 17 19 19 16 19 17 22 35 26 35 39 41 43 43 42 39 35 30 26 24 23 22 20 18 16 13 10 9 7 7 5 4 3 5 4 3
4 3 4 5 5 4 4 14 2 12 17 15 12 16 19 21 22 20 18 21 29 36 29 39 40 39 41 41 38 35 31 26 24 23 21 20 17 14 12 11 8 7 8 6 3 5 6 4 4
5 4 3 6 2 3 1 18 4 22 9 10 9 18 21 22 23 20 22 25 28 33 31 36 41 41 40 39 36 33 29 26 25 24 21 19 16 14 11 10 8 9 8 6 5 7 8 7 6
7 8 5 6 6 3 7 22 10 14 16 12 11 17 22 23 24 19 19 15 26 22 30 29 38 38 38 36 34 31 28 27 25 23 22 17 14 13 11 11 12 10 9 8 8 9 9 7 6
5 6 11 10 12 3 12 21 19 19 15 8 10 16 23 24 23 22 23 23 27 22 24 21 33 36 37 36 35 34 32 27 25 24 21 17 15 12 12 14 13 11 9 9 10 10 8 7 11
7 9 9 8 10 4 9 17 22 15 11 12 10 16 21 24 22 22 23 26 27 28 29 24 27 35 37 36 35 34 31 29 26 23 21 17 14 12 12 13 14 11 11 10 10 9 8 11 16
8 10 7 11 5 6 7 16 15 8 16 21 18 20 22 23 22 22 27 27 26 26 33 30 27 33 37 35 35 34 32 31 29 24 20 20 17 14 12 13 13 12 11 10 8 7 8 13 18
13 9 13 13 4 5 3 10 11 7 11 7 14 15 27 23 21 22 29 32 23 30 33 34 31 35 35 35 36 37 36 34 30 26 23 22 19 16 14 13 11 12 10 9 8 10 11 11 14
9 7 7 10 6 1 3 2 9 8 17 10 12 18 26 28 25 24 32 39 29 36 42 34 28 35 37 37 36 35 34 29 26 24 25 25 21 17 15 14 13 11 10 9 9 9 10 10 8
8 5 6 2 3 6 6 7 16 3 0 7 9 20 23 20 18 27 31 39 38 38 43 42 37 39 41 42 39 38 36 31 28 29 29 26 21 18 16 15 12 10 10 9 9 9 8 6 7
5 4 3 3 1 8 1 2 10 11 2 3 7 17 21 16 17 22 35 41 40 39 41 44 45 45 47 46 43 40 36 34 30 29 29 25 21 19 16 14 12 11 11 10 9 8 7 7 7
5 6 3 4 3 4 3 6 6 7 7 2 4 15 18 22 17 15 30 39 42 42 45 49 50 50 53 51 46 43 39 36 31 30 27 22 19 16 15 14 13 12 11 11 9 9 10 10 8
1 3 2 2 2 3 5 5 8 6 3 3 7 17 21 22 25 17 21 38 39 49 47 49 51 56 55 48 50 45 44 40 38 32 27 22 18 17 16 15 14 12 12 11 11 11 11 10 9
11 6 1 1 3 5 6 5 7 3 4 6 6 14 23 25 27 22 13 34 36 44 50 47 54 53 54 44 51 51 45 39 32 32 29 25 19 20 17 17 13 14 13 12 13 13 11 9 9
2 2 1 2 4 4 4 5 6 6 6 6 7 16 25 27 33 27 15 27 32 42 47 51 54 51 53 51 46 46 41 32 35 30 30 23 23 20 18 16 16 16 15 15 14 13 11 9 7
9 2 4 3 3 4 2 7 7 7 5 5 8 17 30 31 32 29 17 21 31 40 52 55 50 43 46 53 49 41 34 30 38 32 30 26 24 20 18 18 17 16 17 16 14 13 12 9 5
Wind_Direction
222 198 160 151 69 64 227 242 260 233 138 293 131 151 190 188 173 214 283 230 205 182 179 176 174 179 185 185 182 183 184 190 190 188 184 184 179 176 172 165 158 152 145 137 129 116 108 99 87
172 161 148 118 106 141 265 265 211 257 308 318 276 267 185 245 226 256 261 248 201 188 180 177 174 178 182 185 184 184 188 193 194 192 187 185 180 179 177 168 161 150 146 136 124 111 107 102 73
161 160 149 120 128 182 210 227 216 316 326 335 310 246 221 236 236 238 249 214 195 180 184 179 178 179 181 185 183 185 187 189 189 187 186 185 183 181 180 171 162 155 146 133 120 111 98 71 53
148 136 81 108 202 249 213 157 329 332 346 334 314 268 280 273 274 245 239 191 189 182 184 184 184 182 181 184 185 185 184 186 185 185 185 186 187 187 184 175 163 158 146 136 118 100 77 71 76
146 105 71 76 260 271 252 254 292 323 289 312 330 289 292 275 278 262 225 200 198 187 190 186 186 182 183 185 187 185 183 185 186 187 188 191 193 191 188 175 164 158 149 130 108 91 92 97 74
91 93 80 191 255 267 274 268 280 299 341 326 342 318 285 292 279 249 208 211 211 206 195 190 187 185 184 186 187 187 185 187 189 191 194 195 196 194 186 175 165 158 146 116 108 101 107 90 77
111 86 177 158 203 310 265 355 103 341 334 313 328 280 288 306 286 232 227 212 213 222 197 194 192 188 186 188 189 189 188 191 193 194 195 196 195 193 183 175 166 157 132 128 111 105 103 83 68
95 86 125 210 196 249 296 340 320 2 310 315 321 286 308 307 295 269 232 220 217 221 201 199 195 191 191 190 190 191 191 193 194 197 198 195 191 187 179 175 166 152 150 132 114 112 91 84 52
98 62 200 238 169 248 293 320 261 291 287 282 301 300 316 309 266 254 224 209 210 210 199 199 197 195 196 195 193 193 194 195 194 197 196 191 187 181 177 175 165 155 148 130 122 119 109 64 57
94 112 220 214 230 246 282 298 299 278 277 287 291 303 324 331 238 233 218 207 206 207 198 200 200 198 197 198 197 196 197 196 196 195 192 187 183 179 177 173 160 159 145 137 129 113 112 31 60
101 189 222 265 292 308 278 294 295 254 279 273 269 307 312 309 245 228 227 226 211 205 199 201 201 200 199 201 200 199 199 198 198 195 189 187 184 182 177 166 158 160 147 151 144 115 113 270 316
1 261 282 309 316 315 281 287 282 259 267 288 280 287 289 296 283 261 245 246 222 208 204 204 203 203 201 204 203 202 202 199 199 194 190 189 186 180 169 159 160 169 174 175 170 156 346 285 317
176 260 303 304 305 300 298 257 271 260 295 313 274 275 270 275 285 279 262 248 230 220 212 210 208 206 203 205 206 205 203 202 199 195 191 190 184 174 171 175 184 190 198 206 217 284 309 313 313
292 282 287 296 293 287 287 268 278 314 327 318 304 292 282 260 265 269 271 261 245 227 221 216 212 210 206 207 206 206 204 203 200 196 195 190 185 183 182 181 188 187 203 215 248 295 294 304 306
283 316 322 294 312 279 332 292 187 88 10 2 336 318 294 284 271 282 287 251 238 233 219 218 216 215 207 209 207 207 207 206 202 198 194 188 185 186 191 193 195 219 229 228 272 286 266 282 298
352 64 15 293 328 304 24 275 241 8 350 338 323 315 298 290 287 281 286 257 238 234 220 222 219 221 211 209 207 206 207 207 203 200 195 193 193 192 194 197 207 227 221 236 261 263 251 264 255
360 286 296 307 257 265 267 290 162 295 298 300 297 304 300 290 281 275 278 234 220 228 229 222 220 222 213 210 208 207 207 207 202 198 194 193 198 197 196 205 225 223 232 239 265 255 266 267 245
282 295 256 264 287 264 286 282 282 282 276 258 263 293 294 295 281 285 274 225 211 225 233 224 220 221 214 211 206 205 207 207 201 199 194 196 196 198 210 218 231 227 232 248 266 263 268 260 224
248 252 262 275 277 268 276 284 294 291 278 259 244 279 285 287 283 279 262 229 222 215 211 212 216 217 213 210 207 203 203 201 197 195 197 201 199 210 226 234 230 222 233 255 268 273 261 203 191
245 266 270 281 269 187 271 276 287 290 279 276 250 268 265 280 282 270 258 229 200 205 206 229 217 218 219 213 209 207 197 193 192 190 194 199 211 222 233 226 218 227 249 254 271 264 215 196 180
269 259 262 260 288 273 277 281 287 287 279 291 288 258 249 260 272 264 249 217 197 205 195 216 239 216 217 213 210 204 195 191 191 196 201 193 209 223 227 223 229 242 248 265 248 220 213 195 190
279 231 250 260 272 253 166 290 280 268 280 283 282 269 253 240 258 258 234 218 218 223 215 218 227 216 212 211 207 202 192 189 194 200 199 198 208 219 224 225 235 238 252 240 229 200 203 213 212
247 239 249 270 250 246 217 266 262 4 297 308 317 305 274 244 244 246 231 217 214 218 219 209 215 209 208 206 203 199 196 195 192 192 197 199 209 217 219 227 237 243 234 229 218 201 188 188 197
259 315 285 46 175 249 192 185 289 212 243 333 323 335 307 282 267 241 229 222 209 216 211 208 206 206 209 207 202 202 201 196 192 189 194 202 211 220 223 227 231 227 227 221 202 190 188 172 163
64 41 310 313 318 247 164 184 249 269 126 225 314 332 340 333 280 254 227 215 210 207 205 205 200 205 210 209 203 202 201 197 197 198 199 208 216 218 220 221 219 218 219 207 196 180 158 144 158
271 177 218 264 237 275 320 239 243 199 159 212 298 299 344 3 1 264 232 218 205 200 198 189 197 202 208 209 204 203 197 198 200 207 207 215 218 218 212 215 212 216 204 192 186 168 150 147 147
228 194 209 224 238 262 229 284 303 185 191 245 288 316 337 348 1 339 241 225 212 199 197 198 199 201 203 204 206 199 199 199 194 204 210 212 211 207 210 209 204 206 194 184 175 161 157 152 146
200 151 136 23 250 255 274 263 230 326 318 292 295 305 334 341 342 342 270 234 216 213 209 203 199 198 199 196 206 202 202 198 192 200 205 202 207 203 207 201 201 196 187 175 172 163 156 152 149
183 194 252 238 189 209 286 252 218 216 204 260 285 319 333 334 338 338 326 228 223 218 210 206 200 203 203 198 202 209 207 194 200 202 200 202 205 201 199 200 201 191 180 167 170 166 153 151 151
236 224 215 236 222 248 242 272 245 247 233 224 296 333 329 324 333 335 333 222 213 212 210 205 197 207 206 203 210 202 201 193 196 198 195 200 196 197 199 197 191 182 176 167 169 160 148 149 148